Miscellaneous Local Product
Issued by NWS Hastings, NE

Home | Current Version | Previous Version | Graphics & Text | Print | Product List | Glossary On
Versions: 1 2 3 4 5 6 7 8 9 10 11 12 13 14 15 16 17 18 19 20 21 22 23 24 25 26 27 28 29 30 31 32 33 34 35 36 37 38 39 40 41 42 43 44 45 46 47 48 49 50
254
AXUS43 KGID 252102
MISGRI

GID CWA HOURLY WEATHER ROUNDUP
NATIONAL WEATHER SERVICE HASTINGS NE
400 PM CDT FRI MAY 25 2018

NOTE: "FAIR" INDICATES FEW OR NO CLOUDS BELOW 12,000 FEET WITH NO
SIGNIFICANT WEATHER AND/OR OBSTRUCTIONS TO VISIBILITY.

...SOUTH CENTRAL NEBRASKA...

CITY           SKY/WX    TMP DP  RH WIND       PRES   REMARKS
GRAND ISLAND   SUNNY     94  52  24 S7        29.82F HX  91
KEARNEY        SUNNY     93  55  27 W9        29.84F HX  91
HASTINGS       SUNNY     91  57  31 VRB5      29.83F
ORD            SUNNY     91  61  36 VRB5      29.80F HX  91
YORK           SUNNY     91  55  29 S7        29.81F
AURORA         SUNNY     92  50  24 W7        29.81F
LEXINGTON      MOSUNNY   91  55  29 W13       29.85S
HOLDREGE       MOSUNNY   89  57  33 W8        29.85F
HEBRON         MOSUNNY   94  54  26 S3        29.81F HX  91

...NEBRASKA PANHANDLE...

CITY           SKY/WX    TMP DP  RH WIND       PRES   REMARKS
CHADRON        SUNNY     85  50  29 W10       29.91F
ALLIANCE       SUNNY     86  48  26 W10       29.94F
SCOTTSBLUFF    SUNNY     87  48  25 W5        29.95F
SIDNEY         MOSUNNY   89  38  16 W12       29.99F

...WESTERN AND NORTH CENTRAL NEBRASKA...

CITY           SKY/WX    TMP DP  RH WIND       PRES   REMARKS
VALENTINE      SUNNY     90  55  30 NW10G20   29.85F
AINSWORTH      MOSUNNY   87  59  38 NW9       29.85F
ONEILL         SUNNY     90  60  36 SW8       29.82F HX  90
BROKEN BOW     SUNNY     93  50  23 NW7       29.84F HX  90
IMPERIAL       SUNNY     96  33  11 VRB6      29.91F HX  91
NORTH PLATTE   SUNNY     90  57  32 N10       29.87F
MCCOOK         MOSUNNY   86  56  35 W6        29.87F

...EASTERN NEBRASKA...

CITY           SKY/WX    TMP DP  RH WIND       PRES   REMARKS
NORFOLK        SUNNY     94  56  27 NW14G23   29.75F HX  92
SO SIOUX CITY  SUNNY     92  61  35 NE5       29.75F HX  92
TEKAMAH        MOSUNNY   91  60  35 SE3       29.74F HX  90
COLUMBUS       SUNNY     94  58  29 SW9       29.78  HX  93
ALBION         PTSUNNY   92  60  35 S5        29.79F HX  91
OMAHA EPPLEY   MOSUNNY   93  56  28 CALM      29.74F HX  91
OFFUTT AFB     MOSUNNY   93  58  30 SW7       29.74F HX  92
MILLARD        MOSUNNY   94  60  32 S3        29.76F HX  94
LINCOLN        SUNNY     95  53  24 SW13G24   29.77F HX  92
NEBRASKA CITY  SUNNY     91  60  35 W8G16     29.79F HX  91
BEATRICE       SUNNY     93  61  34 SW10G16   29.80F HX  93
FALLS CITY     SUNNY     92  56  29 W10       29.78F HX  90

...NORTHERN KANSAS...

CITY           SKY/WX    TMP DP  RH WIND       PRES   REMARKS
GOODLAND       MOSUNNY   89  43  20 MISG      29.94F
HILL CITY      SUNNY     92  62  36 CALM      29.88F HX  92
NORTON         CLEAR     93  54  26 S3        29.86F HX  91
PHILLIPSBURG   SUNNY     91  63  38 S6        29.85F HX  92
SMITH CENTER   MOSUNNY   91  61  35 S8        29.85F HX  91
HAYS           SUNNY     89  65  44 S9        29.87F HX  91
RUSSELL        SUNNY     88  67  49 MISG      29.85F HX  91
CONCORDIA      SUNNY     88  62  41 MISG      29.83F
SALINA         CLOUDY    92  66  42 VRB6      29.84F HX  94
TOPEKA         SUNNY     88  64  44 SW7       29.82F



USA.gov is the U.S. government's official web portal to all federal, state and local government web resources and services.